Simultaneous Nadir Overpasses (SNOs) Predictions

Prediction of SNOs between GOES-15 and TERRA Satellite Orbit:

Table of predicted SNOs for the next 14.0 days since TLE Epoch: 1/20/2024
Index Date Time (GOES-15) GOES-15 Lat,Lon TERRA Lat,Lon Distance(km) Time Diff (sec)
1 01/20/2024 17:36:29 0.01, 61.67 0.54, 64.34 303.04 80
2 01/21/2024 05:56:30 -0.01, 61.68 0.48, 59.47 251.57 80
3 01/23/2024 05:42:17 -0.01, 61.72 -0.39, 63.55 207.17 80
4 01/23/2024 18:02:28 0.01, 61.73 -0.64, 58.64 351.13 80
5 01/25/2024 17:42:53 0.01, 61.78 0.21, 62.72 107.13 80
6 01/26/2024 06:02:55 -0.01, 61.80 0.80, 57.85 449.07 80
7 01/28/2024 05:48:39 0.01, 61.85 -0.01, 61.94 10.30 80
8 01/30/2024 05:31:43 0.01, 61.90 -0.85, 66.03 469.70 80
9 01/30/2024 17:51:54 -0.02, 61.89 -0.21, 61.13 87.47 80
10 02/01/2024 17:32:18 -0.01, 61.95 0.67, 65.21 370.86 80
11 02/02/2024 05:52:19 0.01, 61.99 0.38, 60.35 186.71 80
